Flag for Germany Weather past 2 weeks in Wermelskirchen, North Rhine-Westphalia, Germany

Now
59 °F

Broken clouds.


Feels Like: 57 °F
Forecast: 47 / 54 °F
Wind: 13 mph from West

Location: Koeln / Bonn

Current Time: Sep 5, 2015 at 12:59:48 PM

Latest Report: Sep 5, 2015 at 12:20 PM


Visibility: N/A

Pressure: 30.01 "Hg

Humidity: 77%

Dew point: 52 °F

Location of WermelskirchenLocation

Historic Weather in Wermelskirchen — Graph

°F

Wermelskirchen temperature yesterday

Maximum temperature yesterday: 64 °F (at 3:20 PM)
Minimum temperature yesterday: 50 °F (at 7:50 AM)
Average temperature yesterday: 57 °F

Past Weeks' High & Low Weather Summary

 TemperatureHumidityPressure
High93 °F (Aug 30, 4:20 PM)100% (Sep 1, 8:20 AM)30.27 "Hg (Sep 1, 8:20 AM)
Low48 °F (Sep 3, 7:50 AM)26% (Aug 23, 3:20 PM)29.56 "Hg (Aug 24, 2:20 PM)
Average65 °F70%29.95 "Hg
* Reported Aug 21 11:20 AM — Sep 5 11:20 AM, Wermelskirchen, Weather by CustomWeather, © 2015

Note: Actual official high and low records may vary slightly from our data, if they occured in-between our weather recording intervals... More about our weather records

Advertising

Wermelskirchen weather history for previous 24 hours

 ConditionsComfort  
Time TempWeatherWind HumidityBarometerVisibility
11:20 AM
Sat, Sep 5
59 °FPartly sunny.14 mph77%30.01 "HgN/A
10:50 AM57 °FPartly sunny.12 mph88%30.01 "HgN/A
10:20 AM57 °FBroken clouds.9 mph88%30.01 "HgN/A
9:50 AM55 °FDrizzle. Broken clouds.9 mph94%30.01 "HgN/A
9:20 AM54 °FDrizzle. Broken clouds.9 mph100%29.98 "Hg1 mi
8:50 AM54 °FMixture of precip. Broken clouds.8 mph100%29.98 "HgN/A
8:20 AM54 °FDrizzle. Partly sunny.9 mph100%29.98 "Hg5 mi
7:50 AM54 °FDrizzle. Partly sunny.10 mph94%29.98 "Hg2 mi
7:20 AM54 °FPassing clouds.9 mph94%29.98 "HgN/A
6:50 AM54 °FPassing clouds.8 mph94%29.98 "HgN/A
6:20 AM54 °FOvercast.12 mph94%29.95 "HgN/A
5:20 AM54 °FOvercast.12 mph94%29.95 "HgN/A
4:50 AM54 °FOvercast.12 mph94%29.95 "HgN/A
4:20 AM54 °FPassing clouds.15 mph94%29.95 "HgN/A
3:50 AM54 °FPassing clouds.13 mph94%29.95 "HgN/A
3:20 AM54 °FPassing clouds.15 mph88%29.95 "HgN/A
2:50 AM55 °FPassing clouds.14 mph82%29.95 "HgN/A
2:20 AM55 °FPassing clouds.13 mph82%29.95 "HgN/A
1:50 AM55 °FPassing clouds.12 mph77%29.98 "HgN/A
1:20 AM55 °FLight rain. Passing clouds.15 mph77%29.98 "HgN/A
12:50 AM55 °FPassing clouds.13 mph77%29.98 "HgN/A
12:20 AM55 °FPartly cloudy.10 mph77%29.98 "HgN/A
11:20 PM
Fri, Sep 4
55 °FPartly cloudy.9 mph77%29.98 "HgN/A
10:50 PM55 °FLight rain. Partly cloudy.10 mph77%29.98 "HgN/A
10:20 PM55 °FPartly cloudy.12 mph77%29.98 "HgN/A
9:50 PM55 °FClear.9 mph77%29.98 "Hg10 mi
9:20 PM55 °FClear.10 mph72%29.98 "Hg10 mi
8:50 PM57 °FSunny.10 mph67%29.98 "Hg10 mi
8:20 PM59 °FPartly sunny.13 mph63%29.95 "HgN/A
7:50 PM59 °FPartly sunny.13 mph63%29.95 "HgN/A
7:20 PM61 °FBroken clouds.13 mph59%29.95 "HgN/A
6:50 PM61 °FBroken clouds.15 mph59%29.95 "HgN/A
6:20 PM63 °FScattered clouds.12 mph56%29.95 "HgN/A
5:50 PM63 °FScattered clouds.14 mph56%29.95 "HgN/A
5:20 PM64 °FScattered clouds.14 mph52%29.95 "HgN/A
4:50 PM63 °FBroken clouds.14 mph52%29.95 "HgN/A
4:20 PM63 °FBroken clouds.12 mph52%29.95 "HgN/A
3:50 PM64 °FBroken clouds.14 mph49%29.98 "HgN/A
3:20 PM64 °FBroken clouds.13 mph49%29.98 "HgN/A
2:50 PM63 °FBroken clouds.13 mph59%29.98 "HgN/A
2:20 PM61 °FBroken clouds.14 mph59%29.98 "HgN/A
1:50 PM61 °FBroken clouds.14 mph63%29.98 "HgN/A
1:20 PM61 °FBroken clouds.14 mph63%29.98 "HgN/A
12:50 PM61 °FBroken clouds.13 mph63%29.98 "HgN/A
12:20 PM59 °FBroken clouds.10 mph68%29.98 "HgN/A
Weather by CustomWeather, © 2015

See weather overviewHow to use our weather pages